When you browse on this site, cookies collect data to enhance your experience and personalize the content and advertising you see.
Visit our Privacy Policy to learn more. By continuing to use the site, you agree to this use of cookies and data.
  • In Hungary
  • List of Countries
  • For 7 days
  • Water Temperature
  • Weather Map
  • News
  • Weather Widgets
  • user-avatar
    Login

    Hourly Weather Nakhon Pathom

    Today, 10 December, Tuesday

    Time Temperature Precipitation Wind Pressure Humidity
    00:00 +19°C° 0 mm 2 mps 761 mmHg 67%
    01:00 +18°C° 0 mm 3 mps 761 mmHg 70%
    02:00 +18°C° 0 mm 3 mps 761 mmHg 71%
    03:00 +18°C° 0 mm 3 mps 760 mmHg 72%
    04:00 +17°C° 0 mm 3 mps 760 mmHg 73%
    05:00 +17°C° 0 mm 3 mps 760 mmHg 74%
    06:00 +17°C° 0 mm 3 mps 761 mmHg 75%
    07:00 +17°C° 0 mm 2 mps 761 mmHg 77%
    08:00 +19°C° 0 mm 3 mps 761 mmHg 67%
    09:00 +22°C° 0 mm 3 mps 761 mmHg 57%
    10:00 +25°C° 0 mm 4 mps 761 mmHg 48%
    11:00 +27°C° 0 mm 4 mps 761 mmHg 45%
    12:00 +28°C° 0 mm 3 mps 760 mmHg 43%
    13:00 +29°C° 0 mm 3 mps 759 mmHg 41%
    14:00 +29°C° 0 mm 4 mps 759 mmHg 42%
    15:00 +29°C° 0 mm 4 mps 758 mmHg 43%
    16:00 +29°C° 0 mm 4 mps 757 mmHg 44%
    17:00 +28°C° 0 mm 4 mps 758 mmHg 49%
    18:00 +26°C° 0 mm 3 mps 758 mmHg 55%
    19:00 +24°C° 0 mm 3 mps 758 mmHg 60%
    20:00 +22°C° 0 mm 3 mps 759 mmHg 62%
    21:00 +22°C° 0 mm 3 mps 759 mmHg 63%
    22:00 +21°C° 0 mm 2 mps 760 mmHg 64%
    23:00 +20°C° 0 mm 2 mps 760 mmHg 66%

    Tomorrow, 11 December, Wednesday

    Time Temperature Precipitation Wind Pressure Humidity
    00:00 +20°C° 0 mm 2 mps 759 mmHg 67%
    01:00 +19°C° 0 mm 2 mps 759 mmHg 68%
    02:00 +19°C° 0 mm 2 mps 759 mmHg 69%
    03:00 +18°C° 0 mm 2 mps 759 mmHg 70%
    04:00 +18°C° 0 mm 2 mps 759 mmHg 71%
    05:00 +18°C° 0 mm 2 mps 759 mmHg 72%
    06:00 +18°C° 0 mm 2 mps 760 mmHg 74%
    07:00 +17°C° 0 mm 2 mps 760 mmHg 76%
    08:00 +20°C° 0 mm 3 mps 760 mmHg 67%
    09:00 +22°C° 0 mm 3 mps 761 mmHg 57%
    10:00 +26°C° 0 mm 3 mps 761 mmHg 48%
    11:00 +27°C° 0 mm 3 mps 760 mmHg 45%
    12:00 +28°C° 0 mm 3 mps 759 mmHg 41%
    13:00 +30°C° 0 mm 3 mps 759 mmHg 38%
    14:00 +30°C° 0 mm 3 mps 758 mmHg 37%
    15:00 +30°C° 0 mm 3 mps 757 mmHg 37%
    16:00 +30°C° 0 mm 3 mps 757 mmHg 36%
    17:00 +28°C° 0 mm 3 mps 757 mmHg 42%
    18:00 +26°C° 0 mm 3 mps 758 mmHg 48%
    19:00 +24°C° 0 mm 3 mps 758 mmHg 53%
    20:00 +22°C° 0 mm 3 mps 759 mmHg 54%
    21:00 +22°C° 0 mm 3 mps 759 mmHg 54%
    22:00 +21°C° 0 mm 2 mps 760 mmHg 55%
    23:00 +20°C° 0 mm 2 mps 760 mmHg 55%

    Day after tomorrow, 12 December, Thursday

    Time Temperature Precipitation Wind Pressure Humidity
    00:00 +20°C° 0 mm 2 mps 760 mmHg 56%
    01:00 +19°C° 0 mm 2 mps 760 mmHg 57%
    02:00 +19°C° 0 mm 2 mps 759 mmHg 58%
    03:00 +18°C° 0 mm 2 mps 759 mmHg 59%
    04:00 +18°C° 0 mm 3 mps 759 mmHg 60%
    05:00 +18°C° 0 mm 3 mps 759 mmHg 60%
    06:00 +17°C° 0 mm 3 mps 760 mmHg 60%
    07:00 +17°C° 0 mm 3 mps 760 mmHg 60%
    08:00 +20°C° 0 mm 3 mps 761 mmHg 54%
    09:00 +22°C° 0 mm 3 mps 761 mmHg 47%
    10:00 +26°C° 0 mm 4 mps 761 mmHg 41%
    11:00 +28°C° 0 mm 4 mps 760 mmHg 39%
    12:00 +29°C° 0 mm 4 mps 760 mmHg 38%
    13:00 +31°C° 0 mm 3 mps 759 mmHg 36%
    14:00 +31°C° 0 mm 3 mps 758 mmHg 37%
    15:00 +31°C° 0 mm 3 mps 758 mmHg 37%
    16:00 +32°C° 0 mm 4 mps 757 mmHg 38%
    17:00 +29°C° 0 mm 3 mps 758 mmHg 45%
    18:00 +27°C° 0 mm 3 mps 758 mmHg 52%
    19:00 +25°C° 0 mm 3 mps 759 mmHg 60%
    20:00 +24°C° 0 mm 3 mps 759 mmHg 62%
    21:00 +24°C° 0 mm 3 mps 760 mmHg 64%
    22:00 +22°C° 0 mm 3 mps 760 mmHg 66%
    23:00 +21°C° 0 mm 2 mps 760 mmHg 67%

    13 December, Friday

    Time Temperature Precipitation Wind Pressure Humidity
    00:00 +21°C° 0 mm 2 mps 760 mmHg 67%
    01:00 +20°C° 0 mm 2 mps 760 mmHg 68%
    02:00 +20°C° 0 mm 2 mps 760 mmHg 68%
    03:00 +19°C° 0 mm 3 mps 759 mmHg 68%
    04:00 +19°C° 0 mm 3 mps 759 mmHg 68%
    05:00 +19°C° 0 mm 3 mps 760 mmHg 70%
    06:00 +19°C° 0 mm 3 mps 760 mmHg 71%
    07:00 +19°C° 0 mm 3 mps 761 mmHg 72%
    08:00 +21°C° 0 mm 4 mps 761 mmHg 66%
    09:00 +25°C° 0 mm 4 mps 761 mmHg 59%
    10:00 +27°C° 0 mm 4 mps 761 mmHg 53%
    11:00 +29°C° 0 mm 4 mps 761 mmHg 50%
    12:00 +30°C° 0 mm 4 mps 760 mmHg 46%
    13:00 +33°C° 0 mm 4 mps 759 mmHg 43%
    14:00 +33°C° 0 mm 4 mps 759 mmHg 43%
    15:00 +33°C° 0 mm 4 mps 758 mmHg 43%
    16:00 +33°C° 0 mm 4 mps 758 mmHg 43%
    17:00 +30°C° 0 mm 4 mps 758 mmHg 49%
    18:00 +28°C° 0 mm 4 mps 759 mmHg 55%
    19:00 +26°C° 0 mm 3 mps 759 mmHg 62%
    20:00 +26°C° 0 mm 3 mps 760 mmHg 64%
    21:00 +25°C° 0 mm 3 mps 760 mmHg 66%
    22:00 +24°C° 0 mm 3 mps 761 mmHg 68%
    23:00 +24°C° 0 mm 3 mps 761 mmHg 69%

    14 December, Saturday

    Time Temperature Precipitation Wind Pressure Humidity
    00:00 +22°C° 0 mm 3 mps 761 mmHg 69%
    01:00 +21°C° 0 mm 3 mps 760 mmHg 70%
    02:00 +21°C° 0 mm 3 mps 760 mmHg 70%
    03:00 +21°C° 0 mm 3 mps 760 mmHg 70%
    04:00 +20°C° 0 mm 3 mps 759 mmHg 70%
    05:00 +20°C° 0 mm 3 mps 760 mmHg 71%
    06:00 +20°C° 0 mm 3 mps 760 mmHg 71%
    07:00 +20°C° 0 mm 4 mps 761 mmHg 71%
    08:00 +22°C° 0 mm 4 mps 761 mmHg 65%
    09:00 +26°C° 0 mm 4 mps 761 mmHg 59%
    10:00 +28°C° 0 mm 5 mps 761 mmHg 52%
    11:00 +30°C° 0 mm 5 mps 761 mmHg 49%
    12:00 +32°C° 0 mm 4 mps 760 mmHg 46%
    13:00 +33°C° 0 mm 4 mps 759 mmHg 43%
    14:00 +33°C° 0 mm 4 mps 758 mmHg 44%
    15:00 +33°C° 0 mm 4 mps 758 mmHg 44%
    16:00 +33°C° 0 mm 4 mps 757 mmHg 45%
    17:00 +32°C° 0 mm 4 mps 758 mmHg 50%
    18:00 +29°C° 0 mm 4 mps 758 mmHg 55%
    19:00 +27°C° 0 mm 3 mps 758 mmHg 61%
    20:00 +26°C° 0 mm 3 mps 759 mmHg 62%
    21:00 +26°C° 0 mm 3 mps 759 mmHg 63%
    22:00 +25°C° 0 mm 3 mps 760 mmHg 65%
    23:00 +24°C° 0 mm 3 mps 760 mmHg 65%

    15 December, Sunday

    Time Temperature Precipitation Wind Pressure Humidity
    00:00 +24°C° 0 mm 3 mps 759 mmHg 66%
    01:00 +24°C° 0 mm 2 mps 759 mmHg 66%
    02:00 +22°C° 0 mm 3 mps 759 mmHg 67%
    03:00 +22°C° 0 mm 3 mps 759 mmHg 68%
    04:00 +22°C° 0 mm 3 mps 758 mmHg 69%
    05:00 +22°C° 0 mm 3 mps 759 mmHg 70%
    06:00 +21°C° 0 mm 3 mps 759 mmHg 71%
    07:00 +21°C° 0 mm 3 mps 759 mmHg 72%
    08:00 +25°C° 0 mm 4 mps 760 mmHg 65%
    09:00 +27°C° 0 mm 4 mps 760 mmHg 59%
    10:00 +29°C° 0 mm 5 mps 760 mmHg 52%
    11:00 +32°C° 0 mm 5 mps 760 mmHg 49%
    12:00 +33°C° 0 mm 4 mps 759 mmHg 46%
    13:00 +35°C° 0 mm 4 mps 758 mmHg 43%
    14:00 +35°C° 0 mm 4 mps 758 mmHg 43%
    15:00 +35°C° 0 mm 4 mps 757 mmHg 43%
    16:00 +35°C° 0 mm 4 mps 756 mmHg 43%
    17:00 +33°C° 0 mm 4 mps 757 mmHg 47%
    18:00 +30°C° 0 mm 4 mps 757 mmHg 52%
    19:00 +28°C° 0 mm 3 mps 757 mmHg 56%
    20:00 +28°C° 0 mm 3 mps 758 mmHg 59%
    21:00 +27°C° 0 mm 3 mps 758 mmHg 61%
    22:00 +26°C° 0 mm 3 mps 759 mmHg 63%
    23:00 +26°C° 0 mm 2 mps 759 mmHg 63%
    Show more